www.pogodaiklimat.ru

Погода и климат >> Архив погоды >> Россия >> Астраханская область >> Астрахань


АРХИВ ПОГОДЫ в Астрахани

Время (UTC), дата Ветер
(напр.,м/с)
 
Видим.   Явления Облачность Т
(С)
Тd
(С)
f
(%)
Тe
(С)
Тes
(С)
Комфортность P
(гПа)
Po
(гПа)
Тmin
(С)
Tmax
(С)
R
(мм)
S
(см)
03 16.03 В 3 10 км 10/0
[As op]
+3.4 -0.6 75 -0 -0 по сезону 1015.1 1017.7 +1.8
06 16.03 В 2 10 км {дождь} 10/0
[Ac As]
+6.9 +0.5 64 +5 +7 тепло 1015.0 1017.6
09 16.03 В 2 10 км 9/0
[Ac trans]
+8.9 -3.5 41 +8 +12 тепло 1014.5 1017.1
12 16.03 В 2 10 км 10/8 1000 м
[Sc Ac As]
+7.9 -3.6 44 +7 +7 по сезону 1013.2 1015.8
15 16.03 В 2 10 км 9/6 1000 м
[Sc Ac trans]
+6.3 -2.5 53 +5 +5 тепло 1013.5 1016.1 +10.0
18 16.03 В 1 10 км 9/9 1000 м
[Sc]
+5.0 -1.2 64 +4 +4 тепло 1013.3 1015.9
21 16.03 СЗ 1 10 км 10/10 600 м
[Sc]
+4.2 -0.6 71 +3 +3 тепло 1012.0 1014.7
00 17.03 С 2 10 км 10/10 600 м
[Sc]
+4.3 -0.3 72 +2 +2 тепло 1011.7 1014.3
03 17.03 СЗ 1 4000 м дымка 10/8 300 м
[Frnb As op]
+3.6 +2.4 92 +2 +2 тепло 1012.2 1014.8 +3.6
06 17.03 СЗ 2 4000 м дымка 9/0
[Ac As]
+5.5 +2.7 82 +3 +5 по сезону 1013.0 1015.6
09 17.03 З 4 10 км 8/0
[Ac trans]
+8.9 +1.5 60 +6 +10 тепло 1013.6 1016.2
12 17.03 З 3 10 км 8/8 600 м
[Cb cap]
+11.2 +1.1 50 +10 +11 тепло 1014.1 1016.7
15 17.03 С 1 10 км 3/0
[Ac trans]
+8.4 +0.4 57 +8 +8 тепло 1015.1 1017.7 +11.3
18 17.03 СВ 1 10 км ясно +4.3 +1.6 83 +3 +3 тепло 1016.0 1018.6
21 17.03 штиль 0 4000 м дымка ясно +0.9 +0.2 95 -0 -0 по сезону 1015.8 1018.5
00 18.03 штиль 0 4000 м дымка ясно -0.9 -1.3 97 -2 -2 по сезону 1015.7 1018.4
03 18.03 В 1 200 м туман ?/? +0.2 +0.1 99 -2 -2 по сезону 1016.0 1018.6 -1.2
06 18.03 С 1 4000 м дымка {туман} 10/10 300 м
[St]
+3.0 +2.7 98 +1 +1 по сезону 1016.4 1019.1
09 18.03 СВ 2 10 км 9/9 600 м
[Sc]
+6.5 +1.9 72 +4 +6 по сезону 1016.0 1018.6
12 18.03 В 2 10 км 9/9 600 м
[Sc]
+7.4 +2.3 70 +6 +6 по сезону 1014.6 1017.2
15 18.03 В 2 10 км 10/10 600 м
[Sc]
+6.1 +2.3 77 +4 +4 по сезону 1014.6 1017.2 +7.5
18 18.03 В 2 4000 м дымка 10/8 300 м
[St Ac As]
+4.2 +2.3 87 +1 +1 по сезону 1015.1 1017.8
21 18.03 В 2 10 км 10/10 600 м
[Sc]
+3.4 +1.0 84 0 0 по сезону 1014.9 1017.5
00 19.03 СВ 2 500 м туман ?/? +0.2 0.0 99 -4 -4 по сезону 1014.7 1017.4
03 19.03 СВ 1 200 м туман ?/? -1.2 -1.3 99 -4 -4 по сезону 1015.4 1018.1 -1.3
06 19.03 СВ 2 1000 м в посл. час туман 10/10 200 м
[St]
+0.2 +0.1 99 -4 -4 прохладно 1015.4 1018.1 -1.5
09 19.03 С 2 4000 м дымка 10/10 300 м
[St]
+3.3 +1.4 87 0 0 по сезону 1014.5 1017.1
12 19.03 З 2 10 км 3/0
[Ci fib]
+9.5 +2.3 61 +8 +13 по сезону 1013.0 1015.5
15 19.03 штиль 0 10 км 9/0
[Ac trans Ci fib]
+9.5 +2.1 60 +9 +9 тепло 1012.6 1015.1 +11.1
18 19.03 В 2 10 км 4/0
[Ci fib]
+4.4 +2.1 85 +2 +2 по сезону 1012.5 1015.1
21 19.03 В 1 200 м туман ?/? +2.7 +2.4 98 +1 +1 по сезону 1011.9 1014.5
00 20.03 В 1 500 м туман ?/? +3.5 +3.3 99 +2 +2 тепло 1010.8 1013.4
03 20.03 СВ 3 500 м туман ?/? +2.0 +1.8 99 -3 -3 по сезону 1009.6 1012.2 +2.0
06 20.03 СВ 5 10 км {туман} 9/0
[Ac trans Ci fib]
+6.1 +2.4 77 +2 +4 по сезону 1008.4 1011.0 +1.9
09 20.03 СВ 3
{10}
10 км 8/3 600 м
[Cb cap Ci fib]
+11.5 +3.0 56 +10 +15 тепло 1006.8 1009.4
12 20.03 СВ 3
{11}
10 км 9/9 1000 м
[Sc]
+12.7 +3.4 53 +12 +12 тепло 1006.0 1008.5
15 20.03 СВ 3 10 км 8/0
[Ac trans Ci fib]
+9.7 +2.4 60 +8 +8 тепло 1006.9 1009.4 +13.6
18 20.03 З 1 10 км 8/0
[Ac trans Ci fib]
+5.6 +2.1 78 +5 +5 тепло 1007.3 1009.9
21 20.03 СЗ 1 10 км 9/8 1000 м
[Sc Ac trans]
+7.0 +3.0 76 +6 +6 тепло 1006.3 1008.9
00 21.03 С 3 10 км 10/10 1000 м
[Sc]
+8.2 +3.4 72 +6 +6 тепло 1006.2 1008.7
03 21.03 С 1 10 км 10/10 600 м
[Sc]
+6.5 +2.5 76 +6 +6 тепло 1006.2 1008.8 +5.3
06 21.03 СЗ 1 10 км 10/8 300 м
[Frnb As op]
+6.1 +2.0 75 +5 +5 тепло 1007.1 1009.6
09 21.03 СЗ 3 4000 м слабый дождь 10/10 300 м
[Frnb Ns]
+3.8 +2.4 91 -0 -0 прохладно 1007.1 1009.7
12 21.03 З 4 4000 м слабый дождь {снег} 10/10 300 м
[Frnb Ns]
+2.1 +1.5 96 -3 -3 очень
холодно
1006.7 1009.3
15 21.03 З 4 1000 м сильный снег {дождь} [диам. отлож. мокр. снега 5 мм] 10/8 300 м
[Frnb As op]
+0.1 -0.0 99 -6 -6 очень
холодно
1007.3 1009.9 +6.5 11
18 21.03 З 4 1000 м сильный снег {дождь} 10/8 300 м
[Frnb As op]
0.0 -0.1 99 -6 -6 холодно 1007.2 1009.9
21 21.03 З 3 1000 м сильный снег [диам. отлож. мокр. снега 13 мм] 10/8 300 м
[Frnb As op]
-0.0 -0.1 99 -5 -5 прохладно 1006.8 1009.4
00 22.03 З 3 4000 м слабая крупа {ливн. осадки, снег} 10/10 600 м
[Cb cap]
+0.1 +0.1 100 -5 -5 по сезону 1006.9 1009.6
03 22.03 З 3 4000 м слабая морось {ливн. осадки} [диам. отлож. мокр. снега 13 мм] 10/10 300 м
[St]
+0.2 +0.2 100 -5 -5 прохладно 1008.0 1010.6 -0.0 6 5
06 22.03 ЮЗ 2 1000 м снежные зёрна {ливн. осадки} 10/10 300 м
[St]
+0.5 +0.3 99 -3 -3 прохладно 1009.4 1012.0
09 22.03 З 1 2000 м слабая морось {снег} 10/10 300 м
[St]
+1.1 +0.7 97 -1 -1 прохладно 1010.5 1013.1
12 22.03 ЮЗ 1 2000 м слабая морось {снег} 10/10 300 м
[St]
+1.6 +1.0 96 -0 -0 холодно 1012.0 1014.6
15 22.03 Ю 1 2000 м слабая морось 10/10 200 м
[St]
+1.4 +1.0 97 -1 -1 прохладно 1014.1 1016.7 +1.6 0.8
18 22.03 ЮВ 1 1000 м дымка {морось} 10/10 100 м
[St]
+1.3 +1.0 98 -1 -1 по сезону 1016.2 1018.9
21 22.03 ЮВ 2 1000 м слабая морось 10/10 100 м
[St]
+0.9 +0.6 98 -3 -3 по сезону 1017.5 1020.2

 

Местоположение метеостанции Астрахань (Астраханская область, Россия): широта 46.28 долгота 47.98 высота над уровнем моря -21 м.

В архиве по умолчанию представлена погода в Астрахани за последнюю неделю. Архивные данные за месяц целиком и за предыдущие месяцы, начиная с января 2011 года, Вы можете получить, выбрав интересующий диапазон дат из раскрывающегося списка и нажав кнопку "Ввод!".

Внимание! Время в таблицах - всемирное. Для получения местного времени необходимо прибавить поправку, которая в Астрахани равна 4 ч.

Смотрите также архив погоды в соседних городах и на ближайших метеорологических станциях:

Погода в Зеленге (Астраханская область, Россия) (50 км)
Погода в Досанге (Астраханская область, Россия) (71 км)
Погода в Лимане (Астраханская область, Россия) (79 км)
Погода в Ганюшкино (Атырауская область, Казахстан) (105 км)
Погода в Лагани (Калмыкия, Россия) (109 км)
Погода в Харабали (Астраханская область, Россия) (136 км)
Погода в Утте (Калмыкия, Россия) (151 км)
Погода в Юсте (Калмыкия, Россия) (158 км)
Погода в Исатай (Атырауская область, Казахстан) (170 км)
Погода в Артезиане (Калмыкия, Россия) (177 км)

Пояснения к столбцам:

Ветер - указаны скорость ветра в м/с - средняя за 10 мин, порывы в срок и между сроками (в фигурных скобках) и направление, откуда дует ветер: С - северный, СВ - северо-восточный, В - восточный, ЮВ - юго-восточный, Ю - южный, ЮЗ - юго-западный, З - западный, СЗ - северо-западный.
Видимость - горизонтальная дальность видимости в метрах или километрах. При видимости от 1 до 10 км при отсутствии осадков обычно наблюдается дымка, при ухудшении видимости до 1 км и менее - туман. В сухую погоду видимость может ухудшаться дымом, пылью или мглою.
Явления - указаны атмосферные явления, наблюдавшиеся в срок или в последний час перед сроком; фигурными скобками обозначены явления, наблюдавшиеся между сроками (за 1-3 часа до срока); квадратными скобками обозначены град или гололедные отложения с указанием их диаметра в мм.
Облачность - указаны через наклонную черту общая и нижняя облачность в баллах и высота нижней границы облаков в метрах; квадратными скобками обозначены формы облаков: Ci - перистые, Cs - перисто-слоистые, Cc - перисто-кучевые, Ac - высококучевые, As - высокослоистые, Sc - слоисто-кучевые, Ns - слоисто-дождевые, Cu - кучевые, Cb - кучево-дождевые. Подробнее классификацию облаков см. в Атласе облаков (PDF).
T - Температура воздуха - температура, измеренная на высоте 2 м над землей.
Td - Температура точки росы - температура, при понижении до которой содержащийся в воздухе водяной пар достигнет насыщения.
f - Относительная влажность воздуха - влажноcть воздуха, измеренная на высоте 2 м над землей.
Te - Эффективная температура - температура, которую ощущает одетый по сезону человек в тени. Характеристика душности погоды. При расчете учитывается влияние влажности воздуха и скорости ветра на теплоощущения человека.
Tes - Эффективная температура на солнце - температура, которую ощущает человек, с поправкой на солнечный нагрев. Характеристика знойности погоды. Зависит от высоты солнца над горизонтом, облачности и скорости ветра. Ночью, в пасмурную погоду, а также при ветре 12 м/с и более поправка равна нулю.
P - Атмосферное давление - приведенное к уровню моря атмосферное давление.
Po - Атмосферное давление - измеренное на уровне метеостанции атмосферное давление.
Tmin - Минимальная температура - минимум температуры воздуха на высоте 2 м над землей.
Tmax - Максимальная температура - максимум температуры воздуха на высоте 2 м над землей.
R - Количество осадков - Количество выпавших осадков, мм. При наведении курсора мыши на число - период времени, за который выпало указанное количество осадков.
S - Снежный покров - Высота снежного покрова, см. При наведении курсора мыши на число - состояние снежного покрова и степень покрытия местности в баллах.